Location: Kapla
(46.2483°N, 15.0094°E)
Time: 12:39:02
(UTC+00:00)

Cosmos 2341 Rocket - Pass Details

Date: 03 March 2021
Orbit: 968 x 1004 km, 82.9° (Epoch: 19 April)

Event Time Altitude Azimuth Distance (km) Brightness Sun altitude
Rises 18:28:47 0° 186° (S) 3,698 7.0 -18.0°
Reaches altitude 10° 18:31:18 10° 186° (S) 2,749 6.3 -18.4°
Maximum altitude 18:37:37 90° 293° (WNW) 993 4.0 -19.5°
Drops below altitude 10° 18:43:56 10° 9° (N) 2,742 6.4 -20.5°
Sets 18:46:26 0° 9° (N) 3,689 7.1 -21.0°
